Погода в Шарковщине

Погода в Шарковщине : погода сейчас, прогноз погоды и архив. Всё, что Вы хотите узнать о погоде в Шарковщине!

Хотите узнать прогноз погоды в Шарковщине? Тогда Вам сюда: Погода в Шарковщине

Поиск расширенной информации на нашем сайте:

Другие новости

Новости СМИ2

Главная страница сайта

Новости сайта

03.07.2017

Напоминаем, что на нашем специализированном сайте Метеоцентр.Азия вы можете получить высокодетализированные автоматические прогнозы погоды по пунктам России, СНГ и мира в авиационном формате (включающие направление и скорость ветра, видимость, явления погоды, количество и форму облачности, нижнюю и верхнюю границу облачности).

Рекомендуем: http://vseprint.ru/ постер в дар ессентуки.

Погода в Шарковщине - сегодня

Время (UTC), дата Ветер
(°,м/с) 
Видим.   Явления Облачность Т
(°С)
Тd
(°С)
f(%) Тe
(°С)
Pmin
(гПа)
dP
(гПа)
Po
(мм)
O2
(г/м3)
Тmin Tmax R s Состояние
почвы
15 19.08.17 190 (Ю) 4{11}  23000 м    5/0 верхняя 
[Ci fib]
+29.4 +17 47 +42  1012.5  -1.2  748  269           
18 19.08.17 180 (Ю) 22000 м    10/0 средняя, верхняя 
[Ac As|Cc]
+24.3 +15.3 57 +34  1013.2  0.4  749  274    +30.4       
21 19.08.17 290 (З) 18000 м    10/0 средняя 
[Ac As]
+20.2 +18.3 89 +35  1015.6  2.2  750  277           
00 20.08.17 280 (З) 14000 м    9/9 600 м 
[Sc]
+18.6 +17.4 93 +33  1017.3  1.6  751  280           
03 20.08.17 320 (СЗ) 10 км  в посл. час ливневой дождь  10/8 600 м средняя 
[Cu Sc|As op]
+16.2 +15.7 97 +28  1017.5  0.1  752  282         
06 20.08.17 340 (С) 12000 м  {ливн. осадки}  10/5 600 м средняя 
[Cu Sc|As op]
+16.9 +15.9 94 +28  1018.8  1.2  752  282  +16       
12 20.08.17 340 (С) 24000 м  {ливн. осадки}  9/9 600 м 
[Cu Sc]
+19.6 +15.8 79 +31  1017.6  -0.4  752  279           
15 20.08.17 030 (СВ) 22000 м    10/4 600 м средняя, верхняя 
[Sc|Ac trans|Ci fib]
+19.3 +15.8 80 +30  1015.6  -2  750  279      0.0     
18 20.08.17 010 (С) 20000 м  в посл. час ливневой дождь  10/8 600 м средняя 
[Cu hum|Ac As]
+16.3 +14.6 90 +26  1015.5  -0.3  750  282    +20.6  0.3     
21 20.08.17 310 (СЗ) 19000 м    10/0 средняя 
[Ac As]
+15.4 +14.2 93 +24  1015.3  -0.2  750  283           
00 21.08.17 330 (СЗ) 19000 м    10/5 600 м средняя 
[Sc|Ac As]
+13.3 +11.8 91 +19  1015  -0.5  749  286           
03 21.08.17 020 (С) 20000 м    10/6 600 м средняя 
[Sc|Ac As]
+13.6 +11.8 89 +19  1014.6  -0.3  749  285           
06 21.08.17 260 (З) 19000 м  {ливн. осадки}  10/10 300 м 
[St]
+13.2 +12.3 94 +18  1014.4  -0.3  749  285  +12.9    0.0     
18 21.08.17 320 (СЗ) 19000 м  {дождь}  10/10 200 м 
[St]
+14.4 +13.1 92 +22  1015.1  -0.5  750  284    +15.3     
03 22.08.17 260 (З) 9000 м  дымка  10/8 600 м средняя 
[Sc|Ac As]
+12.7 +12.3 97 +18  1014.4  -0.7  749  286      0.5     
06 22.08.17 270 (З) 21000 м    10/3 600 м средняя, верхняя 
[Cu med, cong|Ac trans|Ci fib]
+14 +12.9 93 +20  1014.2  -0.1  749  284  +12.2    0.5     
09 22.08.17 280 (З) 24000 м    10/5 600 м средняя 
[Cu med, cong|As trans]
+16.1 +12.3 78 +21  1013.7  -0.4  749  282           
12 22.08.17 300 (СЗ) 26000 м    10/5 600 м средняя, верхняя 
[Cu med, cong|Ac trans|Ci fib]
+17.9 +11.5 66 +22  1012.9  -0.7  748  281           
15 22.08.17 310 (СЗ) 27000 м    10/6 600 м средняя, верхняя 
[Cu med, cong|Ac trans|Ci fib]
+18.4 +11.3 63 +23  1012.2  -0.6  748  280           
18 22.08.17 тихо ()   21000 м    10/5 600 м средняя, верхняя 
[Cu Sc|Ac lent|Cs]
+15.7 +13.3 86 +22  1011.8  -0.5  747  282    +19.3       
21 22.08.17 тихо ()   16000 м    10/5 600 м средняя 
[Cu Sc|Ac As]
+13.6 +13 96 +19  1011.3  -0.6  747  284           
00 23.08.17 тихо ()   15000 м    10/6 600 м средняя 
[Cu Sc|Ac As]
+12.4 +11.9 97 +16  1009.5  -1.9  745  285           
03 23.08.17 290 (З) 19000 м    10/3 600 м средняя 
[Cu Sc|Ac As]
+12.5 +12 97 +18  1007.9  -1.5  744  284           
06 23.08.17 320 (СЗ) 18000 м    10/10 300 м 
[Cu Sc]
+13.4 +12.6 95 +20  1007.4  -0.4  744  283  +11.9         
12 23.08.17 290 (З) 9000 м  слаб. дождь  10/10 300 м 
[Frnb|Ns]
+13 +12.4 96 +18  1006.4  743  283         
Время (UTC), дата Ветер
(°,м/с) 
Видим.   Явления Облачность Т
(°С)
Тd
(°С)
f(%) Тe
(°С)
Pmin
(гПа)
dP
(гПа)
Po
(мм)
O2
(г/м3)
Тmin Tmax R s Состояние
почвы

Для получения пояснительной информации подведите курсор к названию столбца.

ПОГОДА в Шарковщине - архив

Всё, что Вы хотите узнать о погоде в Шарковщине - удобно и подробно!

Выберите нужную дату (начиная с 1 января 2015* года) и нажмите кнопку "Найти".
Будут отображены архивные сводки погоды по пункту Шарковщина, начиная с указанной даты.


Отображать данные в формате CSV (для использования в таблицах Excel)


Внимание! Наш архив погоды предназначен исключительно для личного некоммерческого использования в познавательных целях. Если Вам необходимы официальные справки о состоянии погоды (для производственных, юридических, коммерческих и т.п. целей), обращайтесь в органы Росгидромета.

*Примечание: данная дата относится к архиву по метеостанциям СССР (Россия, СНГ, Балтия).
Архив по метеостанциям Зарубежной Европы и Азии (кроме Китая) хранится 10 дней, по другим регионам земного шара (Китай, Африка, Америка, Австралия, Океания) - 1 день.

Шарковщина - район местоположения метеостанции


Название, широта, долгота, высота метеостанции:
Шарковщина 55.4°ш. 27.5°д. 131 м над ур. моря [Беларусь]

Дополнительная информация

В oтличие oт бoльшинства пoгoдных сайтoв мы публикуем пoдрoбную метеoинфoрмацию в детальнoм прoфессиoнальнoм фoрмате.

Характеристики температуры и влажнoсти вoздуха измеряются на высoте 2 м в тени вдали oт зданий и деревьев.
Скoрoсть ветра измеряется на высoте 10 м (на урoвне рoста челoвека скoрoсть ветра ниже в 1.5-2 раза). Если метеoстанция нахoдится в гoрoде или в лесу, тo скoрoсть ветра занижена на 2-4 м/с пo сравнению с oткрытым местoм. Скoрoсть ветра над акватoриями крупных рек и oзёр, а также на вершинах хoлмoв на 2-5 м/с выше, чем в oбычных услoвиях.
Атмoсфернoе давление в разных тoчках местнoсти мoжет значительнo oтличаться oт давления на метеoстанции, в зависимoсти oт услoвий рельефа (при пoдъёме на 10 м давление пoнижается примернo на 1 мм рт.ст.).